TimeEST,TemperatureF,Dew PointF,Humidity,Sea Level PressureIn,VisibilityMPH,Wind Direction,Wind SpeedMPH,Gust SpeedMPH,PrecipitationIn,Events,Conditions,WindDirDegrees,DateUTC
12:54 AM,44.1,33.1,65,30.14,10.0,NW,4.6,-,N/A,,Overcast,310,2013-01-07 05:54:00
1:54 AM,41.0,32.0,70,30.16,10.0,NW,3.5,-,N/A,,Mostly Cloudy,320,2013-01-07 06:54:00
2:54 AM,39.9,30.0,68,30.18,10.0,Calm,Calm,-,N/A,,Clear,0,2013-01-07 07:54:00
3:54 AM,34.0,28.0,79,30.20,10.0,Calm,Calm,-,N/A,,Clear,0,2013-01-07 08:54:00
4:54 AM,36.0,28.0,73,30.23,10.0,Calm,Calm,-,N/A,,Partly Cloudy,0,2013-01-07 09:54:00
5:54 AM,37.9,28.0,68,30.26,10.0,NNW,3.5,-,N/A,,Clear,340,2013-01-07 10:54:00
6:54 AM,37.9,28.0,68,30.29,10.0,North,5.8,-,N/A,,Clear,10,2013-01-07 11:54:00
7:54 AM,39.9,28.9,65,30.33,10.0,North,8.1,-,N/A,,Clear,10,2013-01-07 12:54:00
8:54 AM,45.0,30.0,56,30.36,10.0,North,10.4,-,N/A,,Clear,360,2013-01-07 13:54:00
9:54 AM,48.0,30.0,50,30.40,10.0,North,11.5,18.4,N/A,,Clear,10,2013-01-07 14:54:00
10:54 AM,50.0,28.0,43,30.41,10.0,NNE,12.7,18.4,N/A,,Clear,20,2013-01-07 15:54:00
11:54 AM,51.1,28.0,41,30.40,10.0,North,6.9,-,N/A,,Clear,360,2013-01-07 16:54:00
12:54 PM,52.0,28.0,40,30.38,10.0,East,6.9,-,N/A,,Clear,80,2013-01-07 17:54:00
1:54 PM,51.1,26.1,38,30.40,10.0,ENE,3.5,-,N/A,,Clear,60,2013-01-07 18:54:00
2:54 PM,51.1,28.0,41,30.40,10.0,ENE,4.6,-,N/A,,Clear,70,2013-01-07 19:54:00
3:54 PM,48.9,27.0,43,30.41,10.0,East,9.2,-,N/A,,Clear,80,2013-01-07 20:54:00
4:54 PM,44.1,28.9,55,30.43,10.0,ENE,6.9,-,N/A,,Clear,70,2013-01-07 21:54:00
5:54 PM,41.0,28.4,61,30.45,10.0,Calm,Calm,-,N/A,,Clear,0,2013-01-07 22:54:00
6:54 PM,35.1,28.0,76,30.46,10.0,Calm,Calm,-,N/A,,Clear,0,2013-01-07 23:54:00
7:54 PM,34.0,28.0,79,30.45,10.0,Calm,Calm,-,N/A,,Clear,0,2013-01-08 00:54:00
8:54 PM,35.1,28.9,78,30.46,10.0,Calm,Calm,-,N/A,,Clear,0,2013-01-08 01:54:00
10:54 PM,32.0,27.0,82,30.45,5.0,Calm,Calm,-,N/A,,Haze,0,2013-01-08 03:54:00
11:19 PM,30.2,26.6,86,30.45,1.8,Calm,Calm,-,N/A,,Clear,0,2013-01-08 04:19:00
11:37 PM,30.2,26.6,86,30.45,0.2,Calm,Calm,-,N/A,,Haze,0,2013-01-08 04:37:00
11:49 PM,30.2,26.6,86,30.45,1.0,Calm,Calm,-,N/A,,Haze,0,2013-01-08 04:49:00
11:52 PM,30.2,26.6,86,30.45,4.0,Calm,Calm,-,N/A,,Haze,0,2013-01-08 04:52:00
11:54 PM,30.9,26.1,82,30.45,5.0,Calm,Calm,-,N/A,,Haze,0,2013-01-08 04:54:00